Simultaneous Nadir Overpasses (SNOs) Predictions

Prediction of SNOs between GOES-16 and METOP-C Satellite Orbit:

Table of predicted SNOs for the next 14.0 days since TLE Epoch: 2/26/2022
Index Date Time (GOES-16) GOES-16 Lat,Lon METOP-C Lat,Lon Distance(km) Time Diff (sec)
1 02/26/2022 14:45:38 0.03, -75.22 0.65, -78.11 328.41 80
2 02/27/2022 14:22:18 0.03, -75.22 -0.43, -73.11 240.53 80
3 03/01/2022 02:44:00 -0.04, -75.20 -0.57, -77.71 285.47 80
4 03/02/2022 02:20:40 -0.04, -75.21 0.51, -72.71 284.13 80
5 03/03/2022 14:42:12 0.04, -75.25 0.52, -77.27 231.52 80
6 03/04/2022 14:18:54 0.04, -75.26 -0.62, -72.29 338.63 80
7 03/06/2022 02:40:34 -0.04, -75.25 -0.43, -76.88 185.67 80
8 03/07/2022 02:17:16 -0.04, -75.27 0.71, -71.89 384.78 80
9 03/08/2022 14:38:49 0.04, -75.32 0.28, -76.46 130.05 80
10 03/09/2022 14:15:30 0.04, -75.34 -0.80, -71.46 440.61 80
11 03/11/2022 02:37:10 -0.04, -75.34 -0.23, -76.06 82.97 80
12 03/12/2022 02:13:51 -0.03, -75.36 0.91, -71.07 487.94 80
